Flag for U.S.A. Weather past 2 weeks in Sunnyvale, California, U.S.A.

Now
65 °F

Passing clouds.


Feels Like: 65 °F
Forecast: 61 / 75 °F
Wind: 7 mph from Southeast

Location: Moffett Field

Current Time: Sep 2, 2015 at 10:07:38 AM

Latest Report: Sep 2, 2015 at 8:56 AM


Visibility: 10 mi

Pressure: 29.98 "Hg

Humidity: 68%

Dew point: 54 °F

Location of SunnyvaleLocation

Historic Weather in Sunnyvale — Graph

°F

Sunnyvale temperature yesterday

Maximum temperature yesterday: 78 °F (at 12:56 PM)
Minimum temperature yesterday: 59 °F (at 4:56 AM)
Average temperature yesterday: 68 °F

Past Weeks' High & Low Weather Summary

 TemperatureHumidityPressure
High90 °F (Aug 28, 2:56 PM)90% (Aug 26, 1:56 AM)30.08 "Hg (Aug 26, 1:56 AM)
Low59 °F (Sep 1, 4:56 AM)26% (Aug 27, 1:56 PM)29.84 "Hg (Aug 28, 4:56 PM)
Average69 °F68%29.96 "Hg
* Reported Aug 18 7:56 AM — Sep 2 7:56 AM, Sunnyvale, Weather by CustomWeather, © 2015

Note: Actual official high and low records may vary slightly from our data, if they occured in-between our weather recording intervals... More about our weather records

Advertising

Sunnyvale weather history for previous 24 hours

 ConditionsComfort  
Time TempWeatherWind HumidityBarometerVisibility
7:56 AM
Wed, Sep 2
61 °FPassing clouds.3 mph75%29.98 "Hg10 mi
6:56 AM60 °FPassing clouds.3 mph80%29.97 "Hg10 mi
5:56 AM61 °FClear.No wind78%29.95 "Hg10 mi
4:56 AM61 °FPassing clouds.No wind81%29.95 "Hg10 mi
3:56 AM61 °FClear.No wind75%29.96 "Hg10 mi
2:56 AM62 °FClear.No wind73%29.96 "Hg10 mi
1:56 AM63 °FClear.3 mph75%29.96 "Hg10 mi
12:56 AM64 °FClear.3 mph73%29.95 "Hg10 mi
11:56 PM
Tue, Sep 1
64 °FClear.3 mph70%29.95 "Hg10 mi
10:56 PM64 °FClear.No wind68%29.94 "Hg10 mi
9:56 PM64 °FClear.5 mph70%29.95 "Hg10 mi
8:56 PM66 °FClear.6 mph63%29.93 "Hg10 mi
7:56 PM68 °FSunny.10 mph59%29.90 "Hg10 mi
6:56 PM72 °FSunny.8 mph53%29.87 "Hg10 mi
5:56 PM78 °FSunny.7 mph46%29.85 "Hg10 mi
4:56 PM78 °FSunny.14 mph52%29.84 "Hg10 mi
3:56 PM78 °FSunny.15 mph50%29.85 "Hg10 mi
1:56 PM78 °FSunny.13 mph50%29.88 "Hg10 mi
12:56 PM78 °FSunny.6 mph50%29.89 "Hg10 mi
11:56 AM76 °FSunny.7 mph52%29.90 "Hg10 mi
10:56 AM72 °FSunny.No wind55%29.91 "Hg10 mi
Weather by CustomWeather, © 2015

See weather overviewHow to use our weather pages